Home   Weather   Barrow   Past weeks
Flag for USA

Past Weather in Barrow, Alaska, USA — Yesterday and Last 2 Weeks

Now
19 °F

Clear.


Feels Like: 7 °F
Forecast: 34 / 17 °F
Wind: 10 mph from Southeast

Location: Post Rogers Memorial Airport

Current Time: Oct 15, 2019 at 8:19:36 am

Latest Report: Oct 15, 2019 at 6:53 am


Visibility: 10 mi

Pressure: 29.74 "Hg

Humidity: 81%

Dew Point: 14 °F

Location of BarrowLocation

Past Weather in Barrow — Graph

°F

Barrow Temperature Yesterday

Maximum temperature yesterday: 36 °F (at 5:53 am)
Minimum temperature yesterday: 15 °F (at 6:53 pm)
Average temperature yesterday: 25 °F

High & Low Weather Summary for the Past Weeks

 TemperatureHumidityPressure
High43 °F (Sep 30, 10:31 pm)100% (Oct 2, 11:53 pm)30.11 "Hg (Oct 2, 11:53 pm)
Low15 °F (Oct 14, 6:53 pm)57% (Oct 9, 9:53 pm)29.18 "Hg (Oct 4, 4:53 pm)
Average33 °F85%29.77 "Hg
* Reported Sep 30 6:53 am — Oct 15 6:53 am, Barrow. Weather by CustomWeather, © 2019

Note: Actual official high and low records may vary slightly from our data, if they occured in-between our weather recording intervals... More about our weather records

Advertising

Barrow Weather History for the Previous 24 Hours

Scroll right to see more
 ConditionsComfort  
Time TempWeatherWind HumidityBarometerVisibility
6:53 am
Tue, Oct 15
19 °FClear.10 mph81%29.74 "Hg10 mi
5:53 am19 °FClear.13 mph85%29.76 "Hg10 mi
4:53 am19 °FClear.10 mph81%29.77 "Hg10 mi
3:53 am17 °FClear.10 mph83%29.78 "Hg10 mi
2:53 am18 °FClear.12 mph84%29.78 "Hg10 mi
1:53 am17 °FClear.10 mph83%29.79 "Hg10 mi
12:53 am17 °FClear.12 mph83%29.80 "Hg10 mi
11:53 pm
Mon, Oct 14
17 °FClear.13 mph83%29.80 "Hg10 mi
10:53 pm16 °FClear.13 mph84%29.80 "Hg10 mi
9:53 pm18 °FClear.13 mph84%29.81 "Hg10 mi
8:53 pm16 °FClear.12 mph84%29.82 "Hg10 mi
7:53 pm15 °FClear.12 mph87%29.83 "Hg10 mi
6:53 pm15 °FClear.9 mph83%29.84 "Hg10 mi
5:53 pm17 °FSunny.8 mph83%29.85 "Hg10 mi
4:53 pm20 °FSunny.9 mph82%29.87 "Hg10 mi
3:53 pm21 °FSunny.9 mph85%29.89 "Hg10 mi
2:53 pm23 °FSunny.N/A81%29.90 "Hg10 mi
1:53 pm25 °FPassing clouds.7 mph85%29.90 "Hg10 mi
12:53 pm28 °FPartly sunny.7 mph89%29.91 "Hg10 mi
11:53 am29 °FOvercast.8 mph89%29.92 "Hg10 mi
10:53 am28 °FOvercast.6 mph93%29.92 "Hg10 mi
9:53 am29 °FOvercast.9 mph89%29.93 "Hg10 mi
8:53 am30 °FOvercast.8 mph89%29.93 "Hg10 mi
Weather by CustomWeather, © 2019

See weather overview